• In Russia
  • List of Countries
  • For 7 days
  • Water Temperature
  • Satellite Maps
  • Weather Map
  • Weather Widgets
  • user-avatar
    Login

    Hourly Weather Bukavu

    Today, 25 February, Sunday

    Time Temperature Precipitation Wind Pressure Humidity
    00:00 +22°C° 0.5 mm 1 mps 687 mmHg 98%
    01:00 +22°C° 0.5 mm 1 mps 687 mmHg 98%
    02:00 +22°C° 0.5 mm 1 mps 687 mmHg 98%
    03:00 +21°C° 0 mm 1 mps 687 mmHg 98%
    04:00 +21°C° 0 mm 1 mps 687 mmHg 99%
    05:00 +21°C° 0 mm 1 mps 687 mmHg 99%
    06:00 +21°C° 0 mm 1 mps 687 mmHg 98%
    07:00 +22°C° 0 mm 1 mps 688 mmHg 97%
    08:00 +23°C° 0 mm 1 mps 688 mmHg 96%
    09:00 +25°C° 0 mm 1 mps 688 mmHg 82%
    10:00 +28°C° 0 mm 2 mps 689 mmHg 69%
    11:00 +31°C° 0 mm 2 mps 689 mmHg 55%
    12:00 +31°C° 0 mm 1 mps 689 mmHg 52%
    13:00 +32°C° 0 mm 1 mps 688 mmHg 50%
    14:00 +33°C° 0 mm 1 mps 687 mmHg 47%
    15:00 +32°C° 0 mm 1 mps 687 mmHg 48%
    16:00 +30°C° 0 mm 0 mps 687 mmHg 49%
    17:00 +30°C° 0 mm 0 mps 686 mmHg 50%
    18:00 +28°C° 0 mm 0 mps 686 mmHg 57%
    19:00 +25°C° 0 mm 0 mps 686 mmHg 65%
    20:00 +23°C° 0 mm 0 mps 685 mmHg 72%
    21:00 +22°C° 0.6 mm 0 mps 686 mmHg 78%
    22:00 +21°C° 0.6 mm 0 mps 686 mmHg 85%
    23:00 +22°C° 0.6 mm 1 mps 686 mmHg 91%

    Tomorrow, 26 February, Monday

    Time Temperature Precipitation Wind Pressure Humidity
    00:00 +22°C° 1.2 mm 1 mps 686 mmHg 93%
    01:00 +22°C° 1.2 mm 1 mps 686 mmHg 96%
    02:00 +21°C° 1.2 mm 1 mps 686 mmHg 98%
    03:00 +19°C° 0.1 mm 0 mps 686 mmHg 98%
    04:00 +19°C° 0.1 mm 0 mps 686 mmHg 98%
    05:00 +19°C° 0.1 mm 0 mps 686 mmHg 97%
    06:00 +20°C° 0.2 mm 0 mps 686 mmHg 95%
    07:00 +21°C° 0.2 mm 0 mps 687 mmHg 93%
    08:00 +22°C° 0.2 mm 0 mps 688 mmHg 90%
    09:00 +27°C° 0 mm 1 mps 688 mmHg 74%
    10:00 +30°C° 0 mm 1 mps 689 mmHg 58%
    11:00 +34°C° 0 mm 1 mps 689 mmHg 42%
    12:00 +34°C° 0 mm 1 mps 688 mmHg 42%
    13:00 +34°C° 0 mm 1 mps 687 mmHg 41%
    14:00 +32°C° 0 mm 0 mps 687 mmHg 41%
    15:00 +32°C° 0.1 mm 1 mps 686 mmHg 49%
    16:00 +30°C° 0.1 mm 1 mps 685 mmHg 58%
    17:00 +28°C° 0.1 mm 1 mps 684 mmHg 66%
    18:00 +26°C° 2 mm 1 mps 685 mmHg 75%
    19:00 +25°C° 2 mm 1 mps 685 mmHg 83%
    20:00 +23°C° 2 mm 1 mps 685 mmHg 92%
    21:00 +23°C° 2.1 mm 1 mps 686 mmHg 93%
    22:00 +23°C° 2.1 mm 1 mps 686 mmHg 94%
    23:00 +20°C° 2.1 mm 0 mps 686 mmHg 96%

    Day after tomorrow, 27 February, Tuesday

    Time Temperature Precipitation Wind Pressure Humidity
    00:00 +22°C° 0.3 mm 1 mps 686 mmHg 96%
    01:00 +22°C° 0.3 mm 1 mps 686 mmHg 97%
    02:00 +21°C° 0.3 mm 1 mps 685 mmHg 97%
    03:00 +21°C° 0.4 mm 1 mps 685 mmHg 98%
    04:00 +21°C° 0.4 mm 1 mps 686 mmHg 98%
    05:00 +21°C° 0.4 mm 1 mps 686 mmHg 99%
    06:00 +21°C° 0.4 mm 1 mps 687 mmHg 98%
    07:00 +22°C° 0.4 mm 1 mps 687 mmHg 97%
    08:00 +21°C° 0.4 mm 2 mps 688 mmHg 97%
    09:00 +24°C° 0 mm 2 mps 689 mmHg 88%
    10:00 +25°C° 0 mm 2 mps 689 mmHg 80%
    11:00 +27°C° 0 mm 2 mps 689 mmHg 72%
    12:00 +28°C° 0.6 mm 2 mps 688 mmHg 70%
    13:00 +29°C° 0.6 mm 2 mps 687 mmHg 68%
    14:00 +30°C° 0.6 mm 2 mps 687 mmHg 66%
    15:00 +29°C° 1.4 mm 2 mps 686 mmHg 74%
    16:00 +27°C° 1.4 mm 1 mps 686 mmHg 82%
    17:00 +26°C° 1.4 mm 1 mps 686 mmHg 90%
    18:00 +25°C° 0.9 mm 1 mps 686 mmHg 92%
    19:00 +23°C° 0.9 mm 1 mps 687 mmHg 95%
    20:00 +22°C° 0.9 mm 1 mps 687 mmHg 97%
    21:00 +22°C° 0.1 mm 1 mps 687 mmHg 97%
    22:00 +20°C° 0.1 mm 0 mps 688 mmHg 97%
    23:00 +20°C° 0.1 mm 0 mps 688 mmHg 97%

    28 February, Wednesday

    Time Temperature Precipitation Wind Pressure Humidity
    00:00 +21°C° 0.2 mm 1 mps 688 mmHg 97%
    01:00 +21°C° 0.2 mm 1 mps 687 mmHg 98%
    02:00 +21°C° 0.2 mm 1 mps 687 mmHg 98%
    03:00 +21°C° 0.1 mm 1 mps 687 mmHg 98%
    04:00 +21°C° 0.1 mm 1 mps 687 mmHg 99%
    05:00 +19°C° 0.1 mm 0 mps 687 mmHg 99%
    06:00 +21°C° 0 mm 1 mps 688 mmHg 98%
    07:00 +22°C° 0 mm 1 mps 689 mmHg 97%
    08:00 +22°C° 0 mm 1 mps 689 mmHg 96%
    09:00 +24°C° 0 mm 2 mps 689 mmHg 86%
    10:00 +26°C° 0 mm 2 mps 689 mmHg 76%
    11:00 +28°C° 0 mm 2 mps 690 mmHg 67%
    12:00 +29°C° 0 mm 2 mps 689 mmHg 61%
    13:00 +31°C° 0 mm 2 mps 688 mmHg 54%
    14:00 +32°C° 0 mm 2 mps 687 mmHg 48%
    15:00 +31°C° 0.2 mm 1 mps 687 mmHg 53%
    16:00 +30°C° 0.2 mm 1 mps 686 mmHg 59%
    17:00 +29°C° 0.2 mm 1 mps 686 mmHg 65%
    18:00 +27°C° 0.6 mm 1 mps 686 mmHg 74%
    19:00 +25°C° 0.6 mm 1 mps 686 mmHg 83%
    20:00 +23°C° 0.6 mm 1 mps 686 mmHg 93%
    21:00 +22°C° 0.1 mm 1 mps 687 mmHg 94%
    22:00 +22°C° 0.1 mm 1 mps 687 mmHg 96%
    23:00 +22°C° 0.1 mm 1 mps 688 mmHg 97%

    1 March, Thursday

    Time Temperature Precipitation Wind Pressure Humidity
    00:00 +21°C° 0.4 mm 1 mps 687 mmHg 97%
    01:00 +21°C° 0.4 mm 1 mps 687 mmHg 98%
    02:00 +19°C° 0.4 mm 0 mps 687 mmHg 98%
    03:00 +21°C° 0.2 mm 1 mps 687 mmHg 98%
    04:00 +21°C° 0.2 mm 1 mps 687 mmHg 98%
    05:00 +21°C° 0.2 mm 1 mps 687 mmHg 98%
    06:00 +21°C° 0 mm 1 mps 688 mmHg 96%
    07:00 +22°C° 0 mm 1 mps 688 mmHg 95%
    08:00 +23°C° 0 mm 2 mps 689 mmHg 93%
    09:00 +25°C° 0 mm 2 mps 689 mmHg 79%
    10:00 +28°C° 0 mm 2 mps 689 mmHg 66%
    11:00 +30°C° 0 mm 2 mps 689 mmHg 52%
    12:00 +31°C° 0 mm 2 mps 688 mmHg 48%
    13:00 +32°C° 0 mm 2 mps 688 mmHg 44%
    14:00 +35°C° 0 mm 2 mps 687 mmHg 40%
    15:00 +34°C° 0 mm 2 mps 686 mmHg 43%
    16:00 +32°C° 0 mm 1 mps 686 mmHg 46%
    17:00 +31°C° 0 mm 1 mps 686 mmHg 49%
    18:00 +29°C° 0 mm 1 mps 686 mmHg 57%
    19:00 +27°C° 0 mm 1 mps 686 mmHg 64%
    20:00 +25°C° 0 mm 1 mps 686 mmHg 72%
    21:00 +24°C° 0.1 mm 1 mps 686 mmHg 76%
    22:00 +23°C° 0.1 mm 1 mps 686 mmHg 81%
    23:00 +23°C° 0.1 mm 1 mps 686 mmHg 85%

    2 March, Friday

    Time Temperature Precipitation Wind Pressure Humidity
    00:00 +22°C° 1.1 mm 1 mps 686 mmHg 89%
    01:00 +22°C° 1.1 mm 1 mps 686 mmHg 93%
    02:00 +21°C° 1.1 mm 1 mps 686 mmHg 97%
    03:00 +21°C° 5.7 mm 1 mps 686 mmHg 97%
    04:00 +21°C° 5.7 mm 1 mps 687 mmHg 98%
    05:00 +21°C° 5.7 mm 1 mps 687 mmHg 98%
    06:00 +21°C° 4.3 mm 1 mps 688 mmHg 98%
    07:00 +21°C° 4.3 mm 1 mps 688 mmHg 98%
    08:00 +19°C° 4.3 mm 0 mps 689 mmHg 98%
    09:00 +21°C° 3.1 mm 1 mps 689 mmHg 98%
    10:00 +22°C° 3.1 mm 1 mps 689 mmHg 97%
    11:00 +22°C° 3.1 mm 1 mps 689 mmHg 97%
    12:00 +22°C° 0.6 mm 1 mps 688 mmHg 93%
    13:00 +23°C° 0.6 mm 2 mps 687 mmHg 89%
    14:00 +24°C° 0.6 mm 2 mps 686 mmHg 85%
    15:00 +24°C° 0.2 mm 2 mps 686 mmHg 84%
    16:00 +24°C° 0.2 mm 2 mps 686 mmHg 83%
    17:00 +25°C° 0.2 mm 1 mps 686 mmHg 82%
    18:00 +23°C° 0.1 mm 1 mps 686 mmHg 86%
    19:00 +22°C° 0.1 mm 1 mps 687 mmHg 90%
    20:00 +21°C° 0.1 mm 1 mps 687 mmHg 94%
    21:00 +21°C° 0 mm 1 mps 687 mmHg 95%
    22:00 +21°C° 0 mm 1 mps 687 mmHg 96%
    23:00 +20°C° 0 mm 1 mps 687 mmHg 96%
    Show more